User: anonymous   Login
Location: Lourdes
(43.1000°N, 0.0500°W)
Time: 08:29:16
(UTC+00:00)
Language:

FENGYUN 1C DEB - Orbit

View from above orbital plane
View from above orbital plane
View from above satellite
View from above satellite

Ground track
Ground track

The orbit data is extracted from the following two-line orbital elements,

1 31659U 99025CBR 21168.56105557  .00001259  00000-0  20268-3 0  9999
2 31659  98.9987 280.7219 0176000 242.4630 115.8591 14.63971462744525
Epoch (UTC): 17 June 2021 13:27:55
Eccentricity: 0.0176000
inclination: 98.9987°
perigee height: 556 km
apogee height: 804 km
right ascension of ascending node: 280.7219°
argument of perigee: 242.4630°
revolutions per day: 14.63971462
mean anomaly at epoch: 115.8591°
orbit number at epoch: 74452

The dashed part of the orbit path shows where the satellite is in the earth's shadow,  

DLR